Weather History for KHON - January, 2013

Change the Weather History Date:

Thursday, January 31, 2013

  Actual Average Record
Temperature  
Mean Temperature -7 °F 18 °F  
Max Temperature -4 °F 28 °F 55 °F (1987)
Min Temperature -10 °F 8 °F -27 °F (1978)
Degree Days  
Heating Degree Days 72 47  
Month to date heating degree days 1493 1501  
Since 1 July heating degree days 4567 4617  
Cooling Degree Days 0 0  
Month to date cooling degree days 0 0  
Year to date cooling degree days 0 0  
Moisture  
Dew Point -16 °F    
Average Humidity 67    
Maximum Humidity 77    
Minimum Humidity 50    
Precipitation  
Precipitation T in 0.02 in 0.28 in (2011)
Month to date precipitation 0.29 0.50  
Year to date precipitation 0.29 0.50  
Snow  
Snow T in 0.20 in 3.10 in (2011)
Month to date snowfall 5.3 7.3  
Since 1 July snowfall 19.4 23.6  
Snow Depth 4.00 in    
Sea Level Pressure  
Sea Level Pressure 30.33 in    
Wind  
Wind Speed 17 mph (NW)    
Max Wind Speed 30 mph    
Max Gust Speed 36 mph    
Visibility 7 miles    
Events Snow    
T = Trace of Precipitation, MM = Missing Value Source: NWS Daily Summary

Daily Weather History Graph

Daily Weather History Graph

Search for Another Location

Airport or City:

Trip Planner

Search our weather history database for the weather conditions in past years. The results will help you decide how hot, cold, wet, or windy it might be!

Date:

Astronomy

Jan. 31, 2013 Rise Set
Actual Time 7:51 AM CST 5:41 PM CST
Civil Twilight 7:21 AM CST 6:12 PM CST
Nautical Twilight 6:46 AM CST 6:47 PM CST
Astronomical Twilight 6:12 AM CST 7:21 PM CST
Moon 10:59 PM CST (1/31) 9:39 AM CST (1/31)
Length of Visible Light 10h 51m
Length of Day
9h 49m
Waning Gibbous, 79% of the Moon is Illuminated
Jan 31
Waning Gibbous
Feb 3
Last Quarter
Feb 10
New
Feb 17
First Quarter
Feb 25
Full

Hourly Weather History & Observations

Time (CST) Temp. Windchill Dew Point Humidity Pressure Visibility Wind Dir Wind Speed Gust Speed Precip Events Conditions
12:55 AM -5.1 °F -27.2 °F -13.0 °F 69% 30.08 in 10.0 mi NNW 17.3 mph - N/A   Clear
1:55 AM -6.0 °F -28.4 °F -15.0 °F 65% 30.11 in 10.0 mi NNW 17.3 mph - N/A   Scattered Clouds
2:55 AM -7.1 °F -29.8 °F -15.0 °F 68% 30.14 in 10.0 mi NNW 17.3 mph - N/A   Clear
3:55 AM -7.1 °F -31.0 °F -15.0 °F 68% 30.15 in 8.0 mi NNW 19.6 mph 25.3 mph N/A   Overcast
4:55 AM -8.0 °F -31.0 °F -14.1 °F 75% 30.19 in 4.0 mi NNW 17.3 mph 27.6 mph 0.00 in Snow Light Snow
5:55 AM -8.0 °F -34.4 °F -14.1 °F 75% 30.22 in 4.0 mi NNW 24.2 mph 28.8 mph 0.00 in   Overcast
6:06 AM -7.6 °F -34.8 °F -14.8 °F 71% 30.11 in 2.0 mi NNW 26.5 mph 33.4 mph 0.00 in   Overcast
6:29 AM -9.4 °F -33.5 °F -14.8 °F 77% 30.12 in 3.0 mi NNW 18.4 mph 32.2 mph N/A   Overcast
6:55 AM -9.0 °F -35.8 °F -15.0 °F 75% 30.25 in 3.0 mi NNW 24.2 mph 33.4 mph 0.00 in   Haze
7:28 AM -9.4 °F -38.6 °F -16.6 °F 71% 30.16 in 3.0 mi NNW 29.9 mph 35.7 mph 0.00 in   Haze
7:55 AM -9.0 °F -35.3 °F -16.1 °F 71% 30.30 in 3.0 mi NNW 23.0 mph 28.8 mph 0.00 in Snow Light Snow
8:03 AM -9.4 °F -36.3 °F -16.6 °F 71% 30.19 in 2.0 mi NNW 24.2 mph - 0.00 in Snow Light Snow
8:19 AM -9.4 °F -35.8 °F -16.6 °F 71% 30.20 in 4.0 mi NNW 23.0 mph 32.2 mph 0.00 in   Haze
8:40 AM -9.4 °F -36.3 °F -16.6 °F 71% 30.22 in 6.0 mi NNW 24.2 mph 32.2 mph 0.00 in   Haze
8:55 AM -9.9 °F -38.4 °F -17.0 °F 71% 30.35 in 5.0 mi NNW 27.6 mph 32.2 mph 0.00 in   Haze
9:28 AM -9.4 °F -35.8 °F -16.6 °F 71% 30.26 in 5.0 mi NNW 23.0 mph 32.2 mph N/A   Haze
9:55 AM -9.0 °F -35.8 °F -17.0 °F 68% 30.40 in 3.0 mi NNW 24.2 mph 29.9 mph N/A   Haze
10:09 AM -9.4 °F -36.8 °F -16.6 °F 71% 30.28 in 2.5 mi NNW 25.3 mph 31.1 mph N/A   Haze
10:36 AM -9.4 °F -37.3 °F -18.4 °F 65% 30.29 in 6.0 mi NNW 26.5 mph 33.4 mph N/A   Haze
10:55 AM -9.0 °F -36.3 °F -17.0 °F 68% 30.43 in 9.0 mi NNW 25.3 mph - N/A   Mostly Cloudy
11:55 AM -9.0 °F -35.8 °F -17.0 °F 68% 30.46 in 10.0 mi NW 24.2 mph 29.9 mph N/A   Overcast
12:55 PM -7.1 °F -32.7 °F -16.1 °F 65% 30.45 in 10.0 mi NW 23.0 mph - N/A   Scattered Clouds
1:04 PM -7.6 °F -32.9 °F -16.6 °F 65% 30.34 in 9.0 mi NW 21.9 mph - N/A   Mostly Cloudy
1:55 PM -7.1 °F -32.1 °F -15.0 °F 68% 30.45 in 10.0 mi NW 21.9 mph - N/A   Mostly Cloudy
2:55 PM -6.0 °F -31.2 °F -15.0 °F 65% 30.45 in 9.0 mi NW 23.0 mph - N/A   Mostly Cloudy
3:55 PM -5.1 °F -29.5 °F -15.0 °F 62% 30.45 in 10.0 mi NW 21.9 mph - N/A   Scattered Clouds
4:55 PM -5.1 °F -26.6 °F -14.1 °F 65% 30.46 in 10.0 mi NW 16.1 mph - N/A   Clear
5:55 PM -7.1 °F -21.4 °F -15.0 °F 68% 30.46 in 10.0 mi NW 6.9 mph - N/A   Clear
6:55 PM -9.0 °F -20.4 °F -16.1 °F 71% 30.47 in 10.0 mi WSW 4.6 mph - N/A   Clear
7:55 PM -9.0 °F -23.8 °F -16.1 °F 71% 30.48 in 10.0 mi West 6.9 mph - N/A   Clear
8:55 PM -9.9 °F -21.5 °F -16.1 °F 74% 30.48 in 10.0 mi SW 4.6 mph - N/A   Clear
9:55 PM -9.0 °F -22.3 °F -15.0 °F 75% 30.47 in 10.0 mi WSW 5.8 mph - N/A   Clear
10:55 PM -9.0 °F -20.4 °F -16.1 °F 71% 30.46 in 10.0 mi WSW 4.6 mph - N/A   Clear
11:55 PM -9.9 °F -19.2 °F -16.1 °F 74% 30.45 in 10.0 mi West 3.5 mph - N/A   Clear